Regional Weather Roundup
Issued by NWS

Home | Current Version | Previous Version | Graphics & Text | Print | Product List | Glossary On
Versions: 1 2 3 4 5 6 7 8 9 10 11 12 13 14 15 16 17 18 19 20 21 22 23 24 25 26 27 28 29 30 31 32 33 34 35 36 37 38 39 40 41 42 43 44 45 46 47 48 49 50
000
ASUS43 KLSX 240959
RWRMO

WEATHER SUMMARY FOR MISSOURI
NATIONAL WEATHER SERVICE SPRINGFIELD MO
500 AM CDT SAT JUN 24 2017

NOTE: "FAIR" INDICATES FEW OR NO CLOUDS BELOW 12,000 FEET WITH NO
       SIGNIFICANT WEATHER AND/OR OBSTRUCTIONS TO VISIBILITY.
       CURRENT SKY AND/OR WEATHER CONDITIONS ARE NOT AVAILABLE FOR
       CHILLICOTHE AND FARMINGTON.

MOZ001>031-035>038-043-044-053-054-241100-
...NORTHERN AND WESTERN MISSOURI...

CITY           SKY/WX    TMP DP  RH WIND       PRES   REMARKS
KANSAS CTY INT CLEAR     58  55  90 NW7       30.12S
KANSAS C DTWN  CLEAR     62  55  77 NW3       30.11S
LEE`S SUMMIT   CLEAR     60  54  80 W5        30.12S
ST JOSEPH      CLEAR     54  52  93 CALM      30.13S
CHILLICOTHE      N/A     58  53  84 CALM      30.11R
KIRKSVILLE     CLEAR     56  52  86 NW5       30.07R

$$
MOZ066>068-077>081-088>096-101>105-241100-
...SOUTHWEST MISSOURI...

CITY           SKY/WX    TMP DP  RH WIND       PRES   REMARKS
SPRINGFIELD    CLEAR     60  55  83 N3        30.11R
JOPLIN         CLEAR     62  58  86 NE3       30.12R
BRANSON        CLEAR     61  55  82 N7        30.13R

$$
MOZ032>034-039>042-045>050-055>058-069>072-241100-
...CENTRAL MISSOURI...

CITY           SKY/WX    TMP DP  RH WIND       PRES   REMARKS
COLUMBIA       PTCLDY    59  55  87 W7        30.08R
JEFFERSON CITY PTCLDY    61  56  83 CALM      30.08R
ROLLA          CLEAR     58  54  86 W6        30.08R
SEDALIA        PTCLDY    60  57  89 W5        30.11R
OSAGE BEACH    CLEAR     59  55  87 CALM      30.10R

$$
MOZ051-052-059>065-241100-
...EAST CENTRAL MISSOURI...

CITY           SKY/WX    TMP DP  RH WIND       PRES   REMARKS
ST LOUIS INTL  PTCLDY    65  55  70 W6        30.03R
SPIRIT OF STL  CLEAR     60  56  86 W7        30.03R
ST CHARLES     PTCLDY    66  56  70 NW12      30.02R

$$
MOZ072>076-082>087-097>100-106>115-241100-
...SOUTH CENTRAL AND SOUTHEAST MISSOURI...

CITY           SKY/WX    TMP DP  RH WIND       PRES   REMARKS
CAPE GIRARDEAU CLOUDY    66  58  75 NW6       30.02R
FARMINGTON     CLEAR     60  55  83 W3        30.06R
POPLAR BLUFF   CLOUDY    65  59  81 NW7       30.03R
WEST PLAINS    CLEAR     61  54  77 N5        30.10R

$$




USA.gov is the U.S. government's official web portal to all federal, state and local government web resources and services.